Location: Antoign�
(47.0844°N, 0.1131°W)
Time: 07:15:01
(UTC+00:00)

SJ 16-02 - Pass Details

Date: 03 March 2021
Orbit: 605 x 617 km, 75.0° (Epoch: 11 April)

Event Time Altitude Azimuth Distance (km) Brightness Sun altitude
Rises 21:12:33 0° 331° (NNW) 2,884 5.6 -34.2°
Reaches altitude 10° 21:14:56 10° 323° (NW) 1,976 4.7 -34.5°
Enters shadow 21:16:38 21° 309° (NW) 1,405 3.8 -34.8°
